Location: Clegg Observatory
(38.9178°N, 78.6069°W)
Time: 17:09:10
(UTC-04:00)

Cosmos 1151 Rocket - Visible Passes

Search period start: 28 July 2016 00:00
Search period end: 07 August 2016 00:00
Orbit: 594 x 616 km, 82.5° (Epoch: 27 July)

Date Brightness Start Highest point End Pass type
(mag) Time Alt. Az. Time Alt. Az. Time Alt. Az.
31 Jul 6.0 05:17:37 10° ESE 05:19:56 14° E 05:22:16 10° NE visible
01 Aug 5.5 05:29:07 10° SE 05:32:35 24° E 05:36:05 10° NE visible
02 Aug 4.5 05:41:15 10° SSE 05:45:18 41° E 05:49:23 10° NNE visible
05 Aug 5.8 04:43:53 10° SE 04:46:37 16° E 04:49:21 10° NE visible
06 Aug 5.1 04:55:36 10° SSE 04:59:17 27° E 05:02:58 10° NNE visible
